Eglinton, United Kingdom

9:56 PM BST on September 19, 2017 (GMT +0100)
Eglinton

Weather History for EGAE - May, 2014

Change the Weather History Date:

Friday, May 2, 2014

  Actual Average Record
Temperature  
Mean Temperature 54 °F -  
Max Temperature 57 °F 55 °F 66 °F (1997)
Min Temperature 50 °F 45 °F 39 °F (2015)
Degree Days  
Heating Degree Days 12    
Growing Degree Days 4 (Base 50)    
Moisture  
Dew Point 44 °F    
Average Humidity 68    
Maximum Humidity 72    
Minimum Humidity 63    
Precipitation  
Precipitation 0.00 in - - ()
Sea Level Pressure  
Sea Level Pressure 30.29 in    
Wind  
Wind Speed 8 mph ()    
Max Wind Speed 10 mph    
Max Gust Speed -    
Visibility 6.2 miles    
Events      
Averages and records for this station are not official NWS values.
T = Trace of Precipitation, MM = Missing Value Source: Averaged Metar Reports

Daily Weather History Graph

Daily Weather History Graph

Search for Another Location

Airport or City:

Trip Planner

Search our weather history database for the weather conditions in past years. The results will help you decide how hot, cold, wet, or windy it might be!

Date:

Astronomy

May. 02, 2014 Rise Set
Actual Time 5:46 AM BST 9:05 PM BST
Civil Twilight 5:03 AM BST 9:49 PM BST
Nautical Twilight 4:04 AM BST 10:48 PM BST
Astronomical Twilight 2:37 AM BST 12:19 AM BST
Moon 8:01 AM BST (5/2) No Moon Set
Length of Visible Light 16h 46m
Length of Day
15h 19m
Waxing Crescent, 11% of the Moon is Illuminated
May 2
Waxing Crescent
May 7
First Quarter
May 14
Full
May 21
Last Quarter
May 28
New

Hourly Weather History & Observations

Time (BST) Temp. Dew Point Humidity Pressure Visibility Wind Dir Wind Speed Gust Speed Precip Events Conditions
8:20 AM 50.0 °F 41.0 °F 71% 30.24 in 6.2 mi ESE 8.1 mph - N/A   Mostly Cloudy
8:50 AM 50.0 °F 41.0 °F 71% 30.24 in 6.2 mi ESE 10.4 mph - N/A   Mostly Cloudy
9:20 AM 50.0 °F 41.0 °F 71% 30.27 in 6.2 mi SE 8.1 mph - N/A   Mostly Cloudy
9:50 AM 51.8 °F 41.0 °F 67% 30.27 in 6.2 mi SE 8.1 mph - N/A   Scattered Clouds
10:20 AM 51.8 °F 42.8 °F 71% 30.27 in 6.2 mi ESE 9.2 mph - N/A   Scattered Clouds
10:50 AM 51.8 °F 42.8 °F 71% 30.27 in 6.2 mi SE 9.2 mph - N/A   Mostly Cloudy
11:20 AM 53.6 °F 42.8 °F 67% 30.27 in 6.2 mi ESE 10.4 mph - N/A   Mostly Cloudy
11:50 AM 53.6 °F 42.8 °F 67% 30.30 in 6.2 mi ESE 8.1 mph - N/A   Mostly Cloudy
12:20 PM 55.4 °F 42.8 °F 63% 30.30 in 6.2 mi SE 8.1 mph - N/A   Mostly Cloudy
12:50 PM 53.6 °F 42.8 °F 67% 30.30 in 6.2 mi SE 8.1 mph - N/A   Mostly Cloudy
1:20 PM 55.4 °F 42.8 °F 63% 30.30 in 6.2 mi SE 9.2 mph - N/A   Mostly Cloudy
1:50 PM 55.4 °F 42.8 °F 63% 30.30 in 6.2 mi SE 5.8 mph - N/A   Mostly Cloudy
2:20 PM 55.4 °F 44.6 °F 67% 30.30 in 6.2 mi SSE 5.8 mph - N/A   Mostly Cloudy
2:50 PM 57.2 °F 44.6 °F 63% 30.30 in 6.2 mi SE 6.9 mph - N/A   Mostly Cloudy
3:20 PM 55.4 °F 42.8 °F 63% 30.30 in 6.2 mi SSE 8.1 mph - N/A   Mostly Cloudy
3:50 PM 55.4 °F 44.6 °F 67% 30.30 in 6.2 mi SSE 9.2 mph - N/A   Mostly Cloudy
4:20 PM 55.4 °F 44.6 °F 67% 30.30 in 6.2 mi South 9.2 mph - N/A   Mostly Cloudy
4:50 PM 55.4 °F 44.6 °F 67% 30.30 in 6.2 mi SSE 10.4 mph - N/A   Mostly Cloudy
5:20 PM 57.2 °F 46.4 °F 67% 30.30 in 6.2 mi SSE 10.4 mph - N/A   Mostly Cloudy
5:50 PM 55.4 °F 44.6 °F 67% 30.30 in 6.2 mi SSE 9.2 mph - N/A   Mostly Cloudy
6:20 PM 55.4 °F 46.4 °F 72% 30.30 in 6.2 mi South 10.4 mph - N/A   Mostly Cloudy
6:50 PM 55.4 °F 44.6 °F 67% 30.30 in 6.2 mi SSE 10.4 mph - N/A   Mostly Cloudy
7:20 PM 53.6 °F 44.6 °F 72% 30.30 in 6.2 mi SSE 9.2 mph - N/A   Mostly Cloudy
7:50 PM 53.6 °F 44.6 °F 72% 30.30 in 6.2 mi SSE 10.4 mph - N/A   Mostly Cloudy
8:20 PM 53.6 °F 44.6 °F 72% 30.30 in 6.2 mi SSE 10.4 mph - N/A   Mostly Cloudy